TimeCST,TemperatureF,Dew PointF,Humidity,Sea Level PressureIn,VisibilityMPH,Wind Direction,Wind SpeedMPH,Gust SpeedMPH,PrecipitationIn,Events,Conditions,WindDirDegrees,DateUTC
12:00 AM,82,77,82,29.91,12,ESE,3.5,,,,Scattered Clouds,110,2012-09-18 06:00:00
3:00 AM,79,77,90,29.89,12,East,3.5,,,Thunderstorm,Thunderstorm,100,2012-09-18 09:00:00
5:00 AM,78.8,77.0,94,29.91,6.2,East,3.5,-,N/A,Thunderstorm,Thunderstorm,90,2012-09-18 11:00:00
6:00 AM,79,78,97,29.91,12,Calm,Calm,,,Thunderstorm,Light Thunderstorm,,2012-09-18 12:00:00
6:00 AM,78.8,78.8,100,29.89,6.2,Calm,Calm,-,N/A,,Mostly Cloudy,0,2012-09-18 12:00:00
7:00 AM,80.6,78.8,94,29.92,6.2,Calm,Calm,-,N/A,,Mostly Cloudy,0,2012-09-18 13:00:00
8:00 AM,82.4,78.8,89,29.92,6.2,Calm,Calm,-,N/A,,Mostly Cloudy,0,2012-09-18 14:00:00
9:00 AM,87,79,72,29.93,12,Calm,Calm,,,,Scattered Clouds,,2012-09-18 15:00:00
9:00 AM,87.8,78.8,75,29.92,6.2,Calm,Calm,-,N/A,,Mostly Cloudy,0,2012-09-18 15:00:00
10:00 AM,89.6,80.6,75,29.92,6.2,ESE,4.6,-,N/A,,Mostly Cloudy,120,2012-09-18 16:00:00
11:00 AM,87.8,80.6,79,29.91,6.2,ENE,8.1,-,N/A,,Mostly Cloudy,70,2012-09-18 17:00:00
12:00 PM,89,80,69,29.89,12,ENE,5.8,,,,Partly Cloudy,70,2012-09-18 18:00:00
12:00 PM,89.6,80.6,75,29.89,6.2,ENE,5.8,-,N/A,,Scattered Clouds,70,2012-09-18 18:00:00
1:00 PM,89.6,80.6,75,29.87,6.2,ENE,9.2,-,N/A,,Mostly Cloudy,70,2012-09-18 19:00:00
2:00 PM,91.4,78.8,66,29.85,6.2,SSE,5.8,-,N/A,,Scattered Clouds,150,2012-09-18 20:00:00
3:00 PM,90,78,61,29.84,12,ESE,5.8,,,,Scattered Clouds,120,2012-09-18 21:00:00
3:00 PM,89.6,78.8,70,29.83,6.2,ESE,5.8,-,N/A,,Scattered Clouds,120,2012-09-18 21:00:00
4:00 PM,89.6,77.0,66,29.83,6.2,ESE,5.8,-,N/A,,Scattered Clouds,120,2012-09-18 22:00:00
5:00 PM,87.8,78.8,75,29.83,6.2,SE,4.6,-,N/A,,Mostly Cloudy,140,2012-09-18 23:00:00
6:00 PM,85,79,78,29.84,12,SE,3.5,,,,Scattered Clouds,130,2012-09-19 00:00:00
6:00 PM,84.2,78.8,84,29.83,6.2,SE,3.5,-,N/A,,Mostly Cloudy,130,2012-09-19 00:00:00